www.pogodaiklimat.ru
ПОГОДА в Кеннетте
Время
и дата
05:55 06.02
06:15 06.02
06:35 06.02
06:55 06.02
07:15 06.02
07:35 06.02
07:55 06.02
08:15 06.02
08:35 06.02
08:55 06.02
09:15 06.02
09:35 06.02
09:55 06.02
10:15 06.02
10:35 06.02
10:55 06.02
11:15 06.02
11:35 06.02
11:55 06.02
12:15 06.02
12:35 06.02
12:55 06.02
13:15 06.02
13:35 06.02
13:55 06.02
14:15 06.02
14:35 06.02
14:55 06.02
15:15 06.02
15:35 06.02
15:55 06.02
16:15 06.02
16:35 06.02
16:55 06.02
17:15 06.02
17:35 06.02
17:55 06.02
18:15 06.02
18:35 06.02
18:55 06.02
19:15 06.02
19:35 06.02
19:55 06.02
20:15 06.02
20:35 06.02
20:55 06.02
21:15 06.02
21:35 06.02
Ветер
(напр.,м/с)
Видим. Явления Облачность Т
(С)
Тd
(С)
f
(%)
Тe
(С)
Тes
(С)
Комфортность P
(гПа)
Po
(гПа)
Тmin
(С)
Tmax
(С)
R
(мм)
R24
(мм)
S
(см)
штиль 0 <100 м переохлажденный туман ?/? 0.0 0.0 100 -1 -1 1012.7
штиль 0 <100 м переохлажденный туман ?/? 0.0 0.0 100 -1 -1 1013.1
штиль 0 <100 м переохлажденный туман 10/10 30 м 0.0 0.0 100 -1 -1 1013.4
В 2 <100 м переохлажденный туман 10/10 30 м 0.0 0.0 100 -4 -4 1013.4
В 2 <100 м туман 10/10 30 м 0.0 0.0 100 -4 -4 1013.4
В 2 <100 м туман 10/10 30 м 0.0 0.0 100 -4 -4 1013.7
В 2 <100 м туман 10/10 30 м +1.0 +1.0 100 -3 -3 1013.4
В 2 <100 м туман 10/10 60 м +2.0 +2.0 100 -2 -2 1013.4
В 3 <100 м туман 8/8 60 м +3.0 +3.0 100 -1 -1 1013.4
В 3 4 км дымка ясно +5.0 +5.0 100 +1 +2 1013.4
В 3 8 км дымка ясно +6.0 +6.0 100 +2 +5 1013.4
ЮВ 2 10 км дымка ясно +7.0 +7.0 100 +5 +8 1013.4
ЮВ 3 10 км дымка ясно +8.0 +8.0 100 +5 +8 1013.7
Ю 5 10 км дымка ясно +9.0 +9.0 100 +5 +8 1013.7
ЮВ 4 10 км дымка ясно +11.0 +10.0 94 +8 +12 1013.7
ЮВ 5 10 км дымка ясно +12.0 +11.0 94 +9 +13 1013.4
ЮВ 4 10 км мгла ясно +13.0 +11.0 88 +11 +16 1013.1
ЮВ 6 11 км ясно +15.0 +11.0 77 +13 +16 1012.7
ЮВ 6 10 км мгла ясно +15.0 +10.0 72 +13 +16 1012.4
ЮВ 5 11 км ясно +16.0 +10.0 68 +15 +19 1012.1
Ю 6 11 км ясно +16.0 +8.0 59 +15 +18 1011.4
Ю 6 11 км ясно +17.0 +8.0 55 +16 +19 1010.7
Ю 7 11 км ясно +17.0 +8.0 55 +16 +18 1010.4
Ю 7
{10}
10 км мгла ясно +18.0 +7.0 49 +17 +19 1010.1
Ю 7
{10}
11 км ясно +18.0 +8.0 52 +17 +19 1009.7
Ю 7
{10}
11 км ясно +18.0 +10.0 59 +17 +19 1009.4
Ю 7 11 км 2/2 1170 м +18.0 +11.0 64 +17 +19 1009.0
Ю 7 10 км мгла 2/2 1110 м +18.0 +11.0 64 +17 +19 1009.0
Ю 6 11 км ясно +18.0 +11.0 64 +17 +19 1008.7
Ю 6 11 км ясно +18.0 +11.0 64 +17 +19 1008.4
Ю 5 11 км ясно +18.0 +11.0 64 +18 +19 1008.7
Ю 5 11 км ясно +18.0 +11.0 64 +18 +18 1008.0
ЮЗ 4
{8}
11 км ясно +17.0 +11.0 68 +17 +17 1008.4
Ю 4 11 км ясно +16.0 +12.0 77 +15 +16 1008.0
Ю 4 10 км мгла ясно +16.0 +12.0 77 +15 +15 1008.0
Ю 4 11 км ясно +15.0 +12.0 82 +14 +14 1008.0
Ю 4 14 км ясно +14.0 +11.0 82 +13 +13 1007.7
Ю 4 14 км ясно +14.0 +12.0 88 +12 +12 1008.0
Ю 4 13 км ясно +14.0 +11.0 82 +13 +13 1007.7
Ю 5 14 км ясно +14.0 +11.0 82 +12 +12 1007.4
Ю 3 14 км ясно +15.0 +11.0 77 +14 +14 1007.4
Ю 4 14 км ясно +13.0 +11.0 88 +11 +11 1007.4
Ю 4 14 км ясно +12.0 +12.0 100 +10 +10 1007.7
Ю 4 14 км ясно +12.0 +11.0 94 +10 +10 1007.4
Ю 4 16 км ясно +12.0 +11.0 94 +10 +10 1007.4
Ю 5 14 км ясно +12.0 +11.0 94 +9 +9 1007.7
Ю 5 14 км ясно +12.0 +11.0 94 +9 +9 1007.0
Ю 4 16 км ясно +12.0 +11.0 94 +10 +10 1007.4
Местоположение метеостанции Kennett Memorial Airport: широта 36.2226 долгота -90.0367 высота над уровнем моря 73 м.
В архиве по умолчанию представлена погода в Кеннетте за последние 1-2 суток. Обновление информации о фактической погоде в базе происходит ежечасно! Архивные данные за месяц целиком и за предыдущие месяцы Вы можете получить, выбрав интересующий диапазон дат из раскрывающегося списка и нажав кнопку "Ввод!".
Внимание! Архив погоды МЕТАР в базе сайта по станциям, не включенным в климатический монитор, хранится не более 60 дней. Нет смысла пытаться выбрать более раннюю дату.
*Определитесь, кто Вы:
Внимание! Время в таблицах - местное (без учета летнего времени). Для получения всемирного времени необходимо вычесть поправку, которая равна -6 ч.
Смотрите также архив погоды в соседних городах и на ближайших метеорологических станциях:
Партнеры нашего сайта:      
Пояснения к столбцам:
  • Ветер - указаны скорость ветра в м/с - средняя за 10 мин, порывы в срок и между сроками (в фигурных скобках) и направление, откуда дует ветер: С - северный,
  • СВ - северо-восточный, В - восточный, ЮВ - юго-восточный, Ю - южный, ЮЗ - юго-западный, З - западный, СЗ - северо-западный.
  • Видимость - горизонтальная дальность видимости в метрах или километрах. При видимости от 1 до 10 км при отсутствии осадков обычно наблюдается дымка, при ухудшении видимости до 1 км и менее - туман. В сухую погоду видимость может ухудшаться дымом, пылью или мглою.
  • Явления - указаны атмосферные явления, наблюдавшиеся в срок или в последний час перед сроком; фигурными скобками обозначены явления, наблюдавшиеся между сроками (за 1-3 часа до срока); квадратными скобками обозначены град или гололедные отложения с указанием их диаметра в мм.
  • Облачность - указаны через наклонную черту общая и нижняя облачность в баллах и высота нижней границы облаков в метрах; квадратными скобками обозначены формы облаков: Ci - перистые, Cs - перисто-слоистые, Cc - перисто-кучевые, Ac - высококучевые, As - высокослоистые, Sc - слоисто-кучевые, Ns - слоисто-дождевые, Cu - кучевые, Cb - кучево-дождевые. Подробнее классификацию облаков см. в Атласе облаков (PDF).
  • T - Температура воздуха - температура, измеренная на высоте 2 м над землей.
  • Td - Температура точки росы - температура, при понижении до которой содержащийся в воздухе водяной пар достигнет насыщения.
  • f - Относительная влажность воздуха - влажноcть воздуха, измеренная на высоте 2 м над землей.
  • Te - Эффективная температура - температура, которую ощущает одетый по сезону человек в тени. Характеристика душности погоды. При расчете учитывается влияние влажности воздуха и скорости ветра на теплоощущения человека.
  • Tes - Эффективная температура на солнце - температура, которую ощущает человек, с поправкой на солнечный нагрев. Характеристика знойности погоды. Зависит от высоты солнца над горизонтом, облачности и скорости ветра. Ночью, в пасмурную погоду, а также при ветре 12 м/с и более поправка равна нулю.
  • P - Атмосферное давление - приведенное к уровню моря атмосферное давление.
  • Po - Атмосферное давление - измеренное на уровне метеостанции атмосферное давление.
  • Tmin - Минимальная температура - минимум температуры воздуха на высоте 2 м над землей.
  • Tmax - Максимальная температура - максимум температуры воздуха на высоте 2 м над землей.
  • R - Количество осадков - Количество выпавших осадков за период времени, мм. При наведении курсора мыши на число - период времени, за который выпало указанное количество осадков.
  • R24 - Количество осадков - Количество выпавших осадков за 24 часа, мм.
  • S - Снежный покров - Высота снежного покрова, см. При наведении курсора мыши на число - состояние снежного покрова и степень покрытия местности в баллах.